Find Local Weather

World > North America > United States > North Carolina

Garner, North Carolina Regional Weather

Lat: 35.69N, Lon: 78.63W
Wx Zone: NCZ041
Warning FLW WEATHER ALERT - (More Info. Click Here) Warning
Feedback

Garner, NC Regional Weather

Expires:201905202300;;189183
ASUS42 KRAH 202210
RWRRAH
NORTH CAROLINA WEATHER ROUNDUP
NATIONAL WEATHER SERVICE RALEIGH NC
600 PM EDT MON MAY 20 2019

NOTE: "FAIR" INDICATES FEW OR NO CLOUDS BELOW 12,000 FEET WITH NO
SIGNIFICANT WEATHER AND/OR OBSTRUCTIONS TO VISIBILITY.


NCZ021-022-025-041-071-084-088-202300-
CENTRAL NORTH CAROLINA
  
CITY           SKY/WX    TMP DP  RH WIND       PRES   REMARKS
CHARLOTTE      FAIR      85  67  54 S12       29.93S                  
GREENSBORO     PTSUNNY   83  64  52 SW14      29.91S                  
WINSTON-SALEM  FAIR      82  57  42 SW5       29.93R                  
RALEIGH-DURHAM FAIR      86  62  44 SW14      29.89F                  
FORT BRAGG     NOT AVBL                                               
FAYETTEVILLE   FAIR      87  67  51 S6        29.90F                  
BURLINGTON     CLOUDY    84  61  45 SW8       29.91R                  
ROXBORO        LGT RAIN  79  63  57 W6        29.92R                  
HENDERSON      FAIR      85  60  43 SW12G18   29.88F                  
LOUISBURG      FAIR      88  61  40 SW7       29.91F                  
LAURINBURG     FAIR      88  65  46 SW9       29.91F                  
$$
 

SKY/WX - Weather  TMP - Temperature  DP - Dew Point  RH - Relative Humidity
WIND - Wind Direction/Speed PRES - Barometric Pressure VSB - Visibility
WCI - Wind Chill Index E13G22 Wind - East Wind 13 mph/Gusts of 22 mph